This is the latest recevied weather packets stored in our database for station/object DC0PP-10. If no packets are shown the sender has not sent any weather packets the latest 10 day(s).
| Time | Temp. | Humidity | Pressure | Rain* | Wind** | Luminosity | Snow |
|---|---|---|---|---|---|---|---|
| 1777852547 | 15.56° C | 66% | 1016.2 hPa | - | - | - | - |
| 1777851647 | 15.56° C | 67% | 1016.2 hPa | - | - | - | - |
| 1777850747 | 16.11° C | 65% | 1016.2 hPa | - | - | - | - |
| 1777849847 | 16.67° C | 62% | 1016.1 hPa | - | - | - | - |
| 1777848947 | 16.67° C | 62% | 1016.1 hPa | - | - | - | - |
| 1777848046 | 16.67° C | 62% | 1016.2 hPa | - | - | - | - |
| 1777847146 | 16.67° C | 63% | 1016 hPa | - | - | - | - |
| 1777846246 | 16.67° C | 61% | 1016.1 hPa | - | - | - | - |
| 1777845346 | 17.22° C | 60% | 1016.1 hPa | - | - | - | - |
| 1777844446 | 17.22° C | 57% | 1016.2 hPa | - | - | - | - |
| 1777843546 | 17.22° C | 57% | 1016.1 hPa | - | - | - | - |
| 1777842645 | 17.22° C | 56% | 1016.1 hPa | - | - | - | - |
| 1777841745 | 17.22° C | 58% | 1016 hPa | - | - | - | - |
| 1777840845 | 17.22° C | 57% | 1016 hPa | - | - | - | - |
| 1777839945 | 17.78° C | 57% | 1016.1 hPa | - | - | - | - |
| 1777839045 | 17.78° C | 55% | 1016.2 hPa | - | - | - | - |
| 1777838145 | 17.78° C | 54% | 1016 hPa | - | - | - | - |
| 1777837244 | 17.78° C | 56% | 1015.9 hPa | - | - | - | - |
| 1777836344 | 18.89° C | 47% | 1015.9 hPa | - | - | - | - |
| 1777835444 | 19.44° C | 46% | 1016.2 hPa | - | - | - | - |
| 1777834544 | 19.44° C | 44% | 1016.1 hPa | - | - | - | - |
| 1777833644 | 20° C | 43% | 1016 hPa | - | - | - | - |
| 1777832748 | 20° C | 42% | 1016 hPa | - | - | - | - |
| 1777831848 | 20.56° C | 41% | 1016 hPa | - | - | - | - |
| 1777830948 | 20.56° C | 41% | 1016 hPa | - | - | - | - |
* Rain since midnight (hover to see other rain measurements)
** Current wind speed in m/s (hover to see current wind gust speed)